TimeEST,TemperatureF,Dew PointF,Humidity,Sea Level PressureIn,VisibilityMPH,Wind Direction,Wind SpeedMPH,Gust SpeedMPH,PrecipitationIn,Events,Conditions,WindDirDegrees,DateUTC
12:51 AM,32.0,28.9,88,29.62,9.0,NW,8.1,-,0.00,Snow,Light Snow,310,2013-03-03 05:51:00
1:11 AM,32.0,28.4,87,29.61,7.0,NW,9.2,-,0.00,Snow,Light Snow,310,2013-03-03 06:11:00
1:51 AM,30.9,28.0,89,29.60,5.0,NW,9.2,-,0.00,Snow,Light Snow,310,2013-03-03 06:51:00
2:51 AM,30.9,28.0,89,29.60,3.0,NW,8.1,-,0.00,Snow,Light Snow,310,2013-03-03 07:51:00
3:01 AM,30.2,28.4,93,29.59,2.5,NW,9.2,-,0.00,Snow,Light Snow,310,2013-03-03 08:01:00
3:27 AM,30.2,28.4,93,29.60,3.0,NW,9.2,-,0.00,Snow,Light Snow,310,2013-03-03 08:27:00
4:12 AM,30.2,28.4,93,29.59,2.5,NW,6.9,-,0.00,Snow,Light Snow,310,2013-03-03 09:12:00
4:28 AM,30.2,28.4,93,29.59,4.0,NW,6.9,-,0.00,Snow,Light Snow,310,2013-03-03 09:28:00
4:51 AM,30.9,28.0,89,29.60,4.0,NW,9.2,-,0.00,Snow,Light Snow,310,2013-03-03 09:51:00
5:25 AM,30.2,28.4,93,29.60,2.5,NW,8.1,-,0.00,Snow,Light Snow,310,2013-03-03 10:25:00
5:51 AM,30.0,28.0,92,29.60,2.0,NW,9.2,-,0.01,Snow,Light Snow,310,2013-03-03 10:51:00
6:26 AM,30.2,28.4,93,29.60,3.0,NW,8.1,-,0.00,Snow,Light Snow,320,2013-03-03 11:26:00
6:37 AM,30.2,28.4,93,29.60,2.0,NW,8.1,-,0.00,Snow,Light Snow,320,2013-03-03 11:37:00
6:51 AM,30.0,27.0,88,29.60,2.0,NW,10.4,-,0.00,Snow,Light Snow,320,2013-03-03 11:51:00
7:02 AM,30.2,26.6,86,29.60,3.0,NW,8.1,-,0.00,Snow,Light Snow,320,2013-03-03 12:02:00
7:51 AM,30.9,28.0,89,29.61,3.0,NW,10.4,-,0.00,Snow,Light Snow,310,2013-03-03 12:51:00
8:07 AM,30.2,28.4,93,29.61,2.5,NW,8.1,-,0.00,Snow,Light Snow,320,2013-03-03 13:07:00
8:31 AM,30.2,28.4,93,29.61,1.8,NW,10.4,-,0.00,Snow,Light Snow,310,2013-03-03 13:31:00
8:41 AM,30.2,28.4,93,29.60,2.0,NW,8.1,-,0.00,Snow,Light Snow,310,2013-03-03 13:41:00
8:58 AM,32.0,28.4,87,29.60,2.0,NW,8.1,-,0.00,Snow,Light Snow,320,2013-03-03 13:58:00
9:07 AM,32.0,28.4,87,29.60,1.8,NW,10.4,-,0.00,Snow,Light Snow,310,2013-03-03 14:07:00
9:21 AM,32.0,28.4,87,29.60,2.5,NW,9.2,-,0.00,Snow,Light Snow,310,2013-03-03 14:21:00
9:36 AM,32.0,28.4,87,29.59,3.0,NW,9.2,-,0.00,Snow,Light Snow,310,2013-03-03 14:36:00
9:51 AM,33.1,28.9,85,29.59,2.0,NW,9.2,-,0.00,Snow,Light Snow,310,2013-03-03 14:51:00
9:58 AM,33.8,28.4,81,29.59,2.0,NW,9.2,-,0.00,Snow,Light Snow,320,2013-03-03 14:58:00
10:21 AM,33.8,30.2,87,29.59,2.5,NW,8.1,-,0.00,Snow,Light Snow,310,2013-03-03 15:21:00
10:41 AM,33.8,30.2,87,29.58,2.5,NW,10.4,-,0.00,Snow,Light Snow,320,2013-03-03 15:41:00
10:51 AM,34.0,30.0,85,29.59,2.5,NW,6.9,-,0.00,Snow,Light Snow,320,2013-03-03 15:51:00
10:55 AM,33.8,30.2,87,29.58,3.0,NW,6.9,-,0.00,Snow,Light Snow,320,2013-03-03 15:55:00
11:22 AM,33.8,30.2,87,29.58,4.0,NW,8.1,-,0.01,Snow,Light Snow,320,2013-03-03 16:22:00
11:51 AM,36.0,32.0,86,29.58,10.0,NW,4.6,-,0.01,,Overcast,310,2013-03-03 16:51:00
12:26 PM,37.4,32.0,81,29.56,10.0,NW,3.5,-,N/A,,Overcast,320,2013-03-03 17:26:00
12:51 PM,37.9,32.0,79,29.56,10.0,WNW,4.6,-,N/A,,Overcast,290,2013-03-03 17:51:00
1:09 PM,37.4,32.0,81,29.55,10.0,Variable,3.5,-,N/A,,Overcast,0,2013-03-03 18:09:00
1:38 PM,37.4,32.0,81,29.54,10.0,WNW,5.8,-,N/A,,Overcast,300,2013-03-03 18:38:00
1:51 PM,37.9,32.0,79,29.55,10.0,WNW,3.5,-,N/A,,Overcast,300,2013-03-03 18:51:00
2:30 PM,39.2,30.2,70,29.54,10.0,WNW,6.9,-,N/A,,Overcast,290,2013-03-03 19:30:00
2:38 PM,39.2,30.2,70,29.54,10.0,WNW,5.8,-,N/A,,Overcast,300,2013-03-03 19:38:00
2:51 PM,39.0,30.9,73,29.54,10.0,WNW,4.6,-,N/A,,Overcast,300,2013-03-03 19:51:00
2:59 PM,39.2,30.2,70,29.54,10.0,WNW,5.8,-,N/A,,Overcast,300,2013-03-03 19:59:00
5:51 PM,37.9,26.1,62,29.55,10.0,NNW,6.9,-,N/A,,Overcast,330,2013-03-03 22:51:00
6:51 PM,37.0,26.1,65,29.56,10.0,WNW,10.4,-,N/A,,Overcast,300,2013-03-03 23:51:00
7:51 PM,35.1,25.0,67,29.57,10.0,NW,13.8,-,N/A,,Overcast,310,2013-03-04 00:51:00
8:51 PM,34.0,25.0,70,29.57,10.0,NW,12.7,-,N/A,,Overcast,310,2013-03-04 01:51:00
9:51 PM,34.0,24.1,67,29.56,10.0,WNW,9.2,-,N/A,,Overcast,300,2013-03-04 02:51:00
10:51 PM,32.0,23.0,69,29.55,10.0,WNW,8.1,-,N/A,,Mostly Cloudy,300,2013-03-04 03:51:00
11:51 PM,32.0,23.0,69,29.55,10.0,WNW,10.4,-,N/A,,Overcast,300,2013-03-04 04:51:00